Regional Weather Roundup
Issued by NWS

Home | Current Version | Previous Version | Text Only | Print | Product List | Glossary Off
Versions: 1 2 3 4 5 6 7 8 9 10 11 12 13 14 15 16 17 18 19 20 21 22 23 24 25 26 27 28 29 30 31 32 33 34 35 36 37 38 39 40 41 42 43 44 45 46 47 48 49 50

000
ASUS45 KTFX 240510
RWRMT
MONTANA REGIONAL WEATHER ROUNDUP
NATIONAL WEATHER SERVICE GREAT FALLS MT
1100 PM MDT SAT MAY 23 2015

NOTE: "FAIR" INDICATES FEW OR NO CLOUDS BELOW 12000 FEET WITH NO
SIGNIFICANT WEATHER AND/OR OBSTRUCTIONS TO VISIBILITY.

MTZ001>007-043-240600-
WEST OF THE DIVIDE

CITY           SKY/WX    TMP DP  RH WIND       PRES   REMARKS
KALISPELL      CLEAR     46  39  76 CALM      30.07R
MISSOULA       MOCLDY    52  45  77 W6        30.09R
BUTTE          CLOUDY    49  42  77 SW5       30.11S
MULLAN PASS    CLEAR     50  34  54 CALM      30.15R
DEER LODGE       N/A     50  43  76 N6        30.15S
EUREKA           N/A     63  30  29 SE3       30.06R
HAMILTON         N/A     55  41  58 NE5       30.07R
LIBBY            N/A     61  37  41 SE7       30.06R
RONAN            N/A     51  43  74 CALM      30.11R
THOMPSON FALLS   N/A     63  41  44 E8        30.07R
$$

MTZ008-052>055-240600-
SOUTHWEST MONTANA

CITY           SKY/WX    TMP DP  RH WIND       PRES   REMARKS
BOZEMAN        CLOUDY    48  46  93 SW5       30.08S
DILLON         CLOUDY    48  44  86 NE9       30.07R
W YELLOWSTONE  CLOUDY    37  37 100 CALM      30.08S
THREE FORKS      N/A     50  29  44 CALM      30.07S
TWIN BRIDGES     N/A     50  42  73 N12       30.05S
$$

MTZ009-010-012-014-046-048-049-054-240600-
EAST SLOPES AND CENTRAL MONTANA

CITY           SKY/WX    TMP DP  RH WIND       PRES   REMARKS
CUT BANK       CLEAR     51  43  74 CALM      30.12S
GREAT FALLS    CLOUDY    52  50  93 CALM      30.12R
MALMSTROM AFB  MOCLDY    53  49  86 NW2G174   30.12R
HELENA         CLOUDY    52  46  80 W8        30.10S
CONRAD           N/A     49  49 100 W2        30.13R
$$

MTZ011-013-016-021-045-047-050-051-240600-
NORTH CENTRAL MONTANA

CITY           SKY/WX    TMP DP  RH WIND       PRES   REMARKS
HAVRE          MOCLDY    53  41  63 S3        30.10R
LEWISTOWN      CLEAR     50  43  77 CALM      30.11S
N BAR RANCH    CLOUDY    48  43  81 CALM      30.14S
CHINOOK          N/A     55  45  67 CALM      30.10R
FORT BENTON      N/A     54  50  87 CALM      30.12R
$$

MTZ017>020-022>027-061-062-240600-
NORTHEAST MONTANA

CITY           SKY/WX    TMP DP  RH WIND       PRES   REMARKS
GLASGOW        CLEAR     56  42  59 SE3       30.10R
JORDAN           N/A     53  46  77 E3        30.10R
SIDNEY         MOCLDY    50  43  76 CALM      30.10S
WOLF POINT     MOCLDY    55  44  66 CALM      30.10R
MALTA            N/A     53  41  64 CALM      30.07R
PLENTYWOOD       N/A     59  39  47 CALM      30.10R
POPLAR           N/A     57  45  62 CALM      30.11S
SCOBEY           N/A     53  33  46 E1        30.09S
$$

MTZ028>42-056>058-240600-
SOUTHCENTRAL AND SOUTHEAST MONTANA

CITY           SKY/WX    TMP DP  RH WIND       PRES   REMARKS
BAKER          CLOUDY    51  49  92 NE8       30.10R
BILLINGS       CLOUDY    53  45  74 NE10      30.08R
LIVINGSTON     CLOUDY    52  45  77 E8        30.07R
MILES CITY     LGT RAIN  52  50  93 NE8       30.07F
BIG TIMBER       N/A     48  48 100 N9        30.10R
EKALAKA          N/A     52  46  79 E6        30.04S
FORSYTH          N/A     50  50 100 NE9       30.08S
LAUREL           N/A     52  43  71 N3        30.06R
ROUNDUP          N/A     53  42  66 CALM      30.00S
$$

REGIONAL REPORTS...DAKOTAS

CITY           SKY/WX    TMP DP  RH WIND       PRES   REMARKS
WILLISTON      PTCLDY    49  42  77 CALM      30.09S
MINOT          CLOUDY    58  46  64 SW5       30.09S
DICKINSON      MOCLDY    51  45  79 SE6       30.09S
BEACH          CLOUDY    50  50 100 E6        30.11S
CROSBY         FAIR      55  45  67 S7        30.10R
WATFORD CITY   FAIR      54  43  66 CALM      30.08S
BISMARCK       CLOUDY    55  50  83 E6        30.11S
GRAND FORKS    PTCLDY    55  46  71 S6        30.09F
FARGO          PTCLDY    56  48  74 E6        30.10F
BUFFALO SD       N/A     54  48  80 E9        30.01S
RAPID CITY     CLOUDY    54  52  93 E12       30.03S
$$

REGIONAL REPORTS...WYOMING/IDAHO/WASHINGTON

CITY           SKY/WX    TMP DP  RH WIND       PRES   REMARKS
GILLETTE       CLOUDY    50  47  89 N6        30.02F
SHERIDAN       CLOUDY    50  47  89 W6        30.05S
BUFFALO WY     CLOUDY    48  46  93 NW7       30.07S
CODY           CLOUDY    48  43  81 NW10G16   30.06R
YELLOWSTONE LA   N/A     40  33  76 VRB5      30.11S
IDAHO FALLS    PTCLDY    48  46  93 CALM      30.00S
SALMON         MOCLDY    52  48  87 CALM      30.03R
BOISE          PTCLDY    64  50  59 S15G31    29.89R
SPOKANE        PTCLDY    68  48  48 W10       29.96R
$$

REGIONAL REPORTS...ALBERTA

CITY           SKY/WX    TMP DP  RH WIND       PRES   REMARKS
EDMONTON       CLEAR     57  34  41 NE5       30.06R
CALGARY        PTCLDY    61  28  29 S7        30.11S
LETHBRIDGE     CLEAR     52  37  58 SE10      30.10R
MEDICINE HAT   CLEAR     55  36  47 SW3       30.09R
$$

REGIONAL REPORTS...SASKATCHEWAN

CITY           SKY/WX    TMP DP  RH WIND       PRES   REMARKS
SWIFT CURRENT  CLEAR     54  30  40 S7        30.10F
REGINA         CLEAR     55  36  47 SW3       30.09S
SASKATOON      PTCLDY    63  36  36 CALM      30.08R
$$


USA.gov is the U.S. government's official web portal to all federal, state and local government web resources and services.